COSMOS 2428 (31792 NORAD) Tracking and Keplerian Element Data

This shows tracking and keplerian element data for the satellite.

Feedback or suggestion? Click here.




ElementValue
Catalog31792
NameCOSMOS 2428
Epoch Orbit56992
Epoch Day198.74281515
Epoch Year2018
RAAN302.508
Inclination70.9676
Eccentricity0.0005542
Argument of Perigee27.7343
Mean Anonmoly332.4073
Mean Motion14.12551188
Decay Rate1.47E-06
L11 31792U 07029A 18198.74281515 .00000147 00000-0 10516-3 0 9998
L22 31792 70.9676 302.5080 0005542 27.7343 332.4073 14.12551188569928

Live tracking and technical data element details for COSMOS 2428 (NORAD 31792). COSMOS 2428 can be tracked NOW for your location showing map with azimuth and elevation plus other details from your city location.

Track the satellite on the map from your city or location and see movement details for azimuth, elevation, latitude, longitude, range, height, and movement on the map or in text.







IsCatalogInMostPopularTable: catalog: 31792, numindb: 34
Update: records affected: 1



GetName: 31792 COSMOS 2428

Hit Count: updated at: Thu, 19 Jul 2018 03:36:36 GMT